When you browse on this site, cookies collect data to enhance your experience and personalize the content and advertising you see.
Visit our Privacy Policy to learn more. By continuing to use the site, you agree to this use of cookies and data.
  • In Latvia
  • List of Countries
  • For 7 days
  • Water Temperature
  • Weather Map
  • Weather Widgets
  • user-avatar
    Login

    Hourly Weather Mayrhofen

    Today, 19 August, Monday

    Time Temperature Precipitation Wind Pressure Humidity
    00:00 +13°C° 0 mm 2 mps 620 mmHg 94%
    01:00 +13°C° 0 mm 1 mps 620 mmHg 97%
    02:00 +13°C° 0.3 mm 1 mps 620 mmHg 97%
    03:00 +12°C° 0.3 mm 1 mps 620 mmHg 97%
    04:00 +12°C° 0.3 mm 1 mps 620 mmHg 97%
    05:00 +13°C° 0.1 mm 1 mps 620 mmHg 96%
    06:00 +13°C° 0.1 mm 1 mps 621 mmHg 95%
    07:00 +13°C° 0 mm 1 mps 621 mmHg 96%
    08:00 +14°C° 0.7 mm 1 mps 621 mmHg 94%
    09:00 +14°C° 0.7 mm 1 mps 621 mmHg 91%
    10:00 +15°C° 0.7 mm 1 mps 622 mmHg 89%
    11:00 +16°C° 0.9 mm 1 mps 622 mmHg 86%
    12:00 +16°C° 0.9 mm 1 mps 622 mmHg 84%
    13:00 +18°C° 0.9 mm 1 mps 622 mmHg 82%
    14:00 +16°C° 1.5 mm 1 mps 622 mmHg 85%
    15:00 +16°C° 1.5 mm 1 mps 622 mmHg 88%
    16:00 +15°C° 1.5 mm 1 mps 621 mmHg 91%
    17:00 +14°C° 2 mm 1 mps 621 mmHg 93%
    18:00 +14°C° 2 mm 1 mps 621 mmHg 95%
    19:00 +13°C° 2 mm 1 mps 621 mmHg 97%
    20:00 +13°C° 1.3 mm 1 mps 622 mmHg 97%
    21:00 +13°C° 1.3 mm 1 mps 622 mmHg 97%
    22:00 +12°C° 1.3 mm 0 mps 622 mmHg 98%
    23:00 +12°C° 0.9 mm 1 mps 622 mmHg 97%

    Tomorrow, 20 August, Tuesday

    Time Temperature Precipitation Wind Pressure Humidity
    00:00 +12°C° 0.9 mm 1 mps 622 mmHg 97%
    01:00 +12°C° 0.9 mm 1 mps 622 mmHg 96%
    02:00 +12°C° 0.4 mm 1 mps 621 mmHg 96%
    03:00 +12°C° 0.4 mm 1 mps 621 mmHg 96%
    04:00 +12°C° 0.4 mm 1 mps 621 mmHg 96%
    05:00 +12°C° 0.2 mm 1 mps 621 mmHg 96%
    06:00 +13°C° 0.2 mm 1 mps 621 mmHg 95%
    07:00 +13°C° 0.2 mm 1 mps 622 mmHg 94%
    08:00 +14°C° 0.3 mm 1 mps 622 mmHg 91%
    09:00 +15°C° 0.3 mm 2 mps 622 mmHg 87%
    10:00 +17°C° 0.3 mm 2 mps 623 mmHg 83%
    11:00 +17°C° 0.7 mm 2 mps 623 mmHg 81%
    12:00 +18°C° 0.7 mm 2 mps 623 mmHg 79%
    13:00 +18°C° 0.7 mm 2 mps 623 mmHg 78%
    14:00 +18°C° 0.8 mm 2 mps 623 mmHg 79%
    15:00 +18°C° 0.8 mm 2 mps 623 mmHg 80%
    16:00 +17°C° 0.8 mm 2 mps 623 mmHg 81%
    17:00 +16°C° 0.8 mm 2 mps 623 mmHg 86%
    18:00 +14°C° 0.8 mm 1 mps 622 mmHg 90%
    19:00 +13°C° 0.8 mm 1 mps 622 mmHg 95%
    20:00 +12°C° 0.4 mm 1 mps 622 mmHg 96%
    21:00 +11°C° 0.4 mm 1 mps 622 mmHg 96%
    22:00 +10°C° 0.4 mm 1 mps 622 mmHg 97%
    23:00 +10°C° 0.2 mm 1 mps 622 mmHg 97%

    Day after tomorrow, 21 August, Wednesday

    Time Temperature Precipitation Wind Pressure Humidity
    00:00 +9°C° 0.2 mm 2 mps 622 mmHg 98%
    01:00 +8°C° 0.2 mm 2 mps 622 mmHg 98%
    02:00 +8°C° 0.4 mm 2 mps 622 mmHg 98%
    03:00 +8°C° 0.4 mm 2 mps 622 mmHg 98%
    04:00 +7°C° 0.4 mm 2 mps 622 mmHg 98%
    05:00 +7°C° 0.4 mm 2 mps 622 mmHg 97%
    06:00 +7°C° 0.4 mm 2 mps 622 mmHg 97%
    07:00 +7°C° 0.4 mm 2 mps 622 mmHg 97%
    08:00 +8°C° 0.2 mm 2 mps 623 mmHg 93%
    09:00 +10°C° 0.2 mm 1 mps 623 mmHg 90%
    10:00 +11°C° 0.2 mm 1 mps 624 mmHg 86%
    11:00 +13°C° 0.1 mm 1 mps 624 mmHg 81%
    12:00 +14°C° 0.1 mm 1 mps 624 mmHg 76%
    13:00 +15°C° 0.1 mm 1 mps 624 mmHg 71%
    14:00 +15°C° 0.1 mm 1 mps 624 mmHg 71%
    15:00 +15°C° 0.1 mm 2 mps 624 mmHg 71%
    16:00 +16°C° 0.1 mm 2 mps 624 mmHg 71%
    17:00 +14°C° 0.1 mm 1 mps 624 mmHg 78%
    18:00 +13°C° 0.1 mm 1 mps 623 mmHg 85%
    19:00 +11°C° 0.1 mm 1 mps 623 mmHg 92%
    20:00 +11°C° 0.1 mm 1 mps 623 mmHg 93%
    21:00 +10°C° 0.1 mm 1 mps 623 mmHg 94%
    22:00 +10°C° 0.1 mm 1 mps 623 mmHg 95%
    23:00 +10°C° 0 mm 1 mps 622 mmHg 94%

    22 August, Thursday

    Time Temperature Precipitation Wind Pressure Humidity
    00:00 +10°C° 0 mm 1 mps 622 mmHg 93%
    01:00 +10°C° 0 mm 1 mps 622 mmHg 93%
    02:00 +10°C° 0 mm 1 mps 622 mmHg 92%
    03:00 +9°C° 0 mm 1 mps 622 mmHg 92%
    04:00 +8°C° 0 mm 0 mps 621 mmHg 92%
    05:00 +9°C° 0 mm 0 mps 622 mmHg 88%
    06:00 +11°C° 0 mm 0 mps 623 mmHg 85%
    07:00 +12°C° 0 mm 0 mps 623 mmHg 81%
    08:00 +14°C° 0 mm 0 mps 624 mmHg 73%
    09:00 +16°C° 0 mm 0 mps 625 mmHg 65%
    10:00 +20°C° 0 mm 1 mps 626 mmHg 57%
    11:00 +20°C° 0.3 mm 1 mps 626 mmHg 57%
    12:00 +21°C° 0.3 mm 1 mps 626 mmHg 56%
    13:00 +21°C° 0.3 mm 1 mps 626 mmHg 55%
    14:00 +19°C° 0.8 mm 2 mps 625 mmHg 60%
    15:00 +19°C° 0.8 mm 2 mps 625 mmHg 66%
    16:00 +18°C° 0.8 mm 2 mps 624 mmHg 71%
    17:00 +16°C° 0.7 mm 2 mps 624 mmHg 78%
    18:00 +15°C° 0.7 mm 1 mps 624 mmHg 85%
    19:00 +13°C° 0.7 mm 1 mps 623 mmHg 92%
    20:00 +13°C° 0.3 mm 1 mps 623 mmHg 92%
    21:00 +12°C° 0.3 mm 1 mps 623 mmHg 93%
    22:00 +10°C° 0.3 mm 0 mps 623 mmHg 94%
    23:00 +10°C° 0 mm 0 mps 623 mmHg 93%

    23 August, Friday

    Time Temperature Precipitation Wind Pressure Humidity
    00:00 +10°C° 0 mm 0 mps 623 mmHg 93%
    01:00 +9°C° 0 mm 0 mps 622 mmHg 92%
    02:00 +9°C° 0 mm 0 mps 622 mmHg 92%
    03:00 +9°C° 0 mm 0 mps 622 mmHg 92%
    04:00 +8°C° 0 mm 0 mps 621 mmHg 91%
    05:00 +10°C° 0 mm 0 mps 622 mmHg 88%
    06:00 +11°C° 0 mm 0 mps 623 mmHg 86%
    07:00 +12°C° 0 mm 0 mps 623 mmHg 83%
    08:00 +15°C° 0.1 mm 1 mps 624 mmHg 75%
    09:00 +18°C° 0.1 mm 1 mps 625 mmHg 68%
    10:00 +20°C° 0.1 mm 1 mps 625 mmHg 60%
    11:00 +20°C° 0.7 mm 1 mps 625 mmHg 62%
    12:00 +19°C° 0.7 mm 2 mps 625 mmHg 64%
    13:00 +19°C° 0.7 mm 2 mps 625 mmHg 65%
    14:00 +19°C° 1.2 mm 2 mps 624 mmHg 69%
    15:00 +19°C° 1.2 mm 1 mps 624 mmHg 72%
    16:00 +19°C° 1.2 mm 1 mps 624 mmHg 75%
    17:00 +16°C° 0.6 mm 1 mps 623 mmHg 79%
    18:00 +15°C° 0.6 mm 1 mps 623 mmHg 83%
    19:00 +13°C° 0.6 mm 0 mps 622 mmHg 87%
    20:00 +13°C° 0.2 mm 1 mps 622 mmHg 88%
    21:00 +12°C° 0.2 mm 1 mps 622 mmHg 88%
    22:00 +12°C° 0.2 mm 1 mps 622 mmHg 88%
    23:00 +11°C° 0 mm 1 mps 621 mmHg 88%

    24 August, Saturday

    Time Temperature Precipitation Wind Pressure Humidity
    00:00 +11°C° 0 mm 1 mps 621 mmHg 88%
    01:00 +10°C° 0 mm 1 mps 621 mmHg 88%
    02:00 +10°C° 0 mm 1 mps 621 mmHg 88%
    03:00 +10°C° 0 mm 1 mps 620 mmHg 87%
    04:00 +10°C° 0 mm 1 mps 620 mmHg 87%
    05:00 +11°C° 0 mm 1 mps 620 mmHg 85%
    06:00 +12°C° 0 mm 1 mps 621 mmHg 83%
    07:00 +13°C° 0 mm 1 mps 621 mmHg 80%
    08:00 +16°C° 0 mm 1 mps 622 mmHg 71%
    09:00 +19°C° 0 mm 1 mps 623 mmHg 61%
    10:00 +21°C° 0 mm 1 mps 624 mmHg 52%
    11:00 +22°C° 0 mm 1 mps 624 mmHg 49%
    12:00 +22°C° 0 mm 1 mps 624 mmHg 47%
    13:00 +23°C° 0 mm 1 mps 624 mmHg 44%
    14:00 +22°C° 0.6 mm 1 mps 623 mmHg 52%
    15:00 +20°C° 0.6 mm 2 mps 623 mmHg 59%
    16:00 +19°C° 0.6 mm 2 mps 622 mmHg 67%
    17:00 +18°C° 0.9 mm 1 mps 621 mmHg 74%
    18:00 +15°C° 0.9 mm 1 mps 621 mmHg 82%
    19:00 +12°C° 0.9 mm 0 mps 620 mmHg 89%
    20:00 +12°C° 0.3 mm 0 mps 620 mmHg 90%
    21:00 +11°C° 0.3 mm 0 mps 620 mmHg 90%
    22:00 +11°C° 0.3 mm 0 mps 620 mmHg 90%
    23:00 +11°C° 0 mm 1 mps 620 mmHg 90%
    Show more